TimePST,TemperatureF,Dew PointF,Humidity,Sea Level PressureIn,VisibilityMPH,Wind Direction,Wind SpeedMPH,Gust SpeedMPH,PrecipitationIn,Events,Conditions,WindDirDegrees,DateUTC
12:37 AM,51.8,51.8,100,29.98,1.2,Calm,Calm,-,N/A,,Overcast,0,2012-12-09 08:37:00
12:53 AM,53.1,53.1,100,29.98,1.5,Calm,Calm,-,N/A,,Overcast,0,2012-12-09 08:53:00
1:06 AM,51.8,51.8,100,29.98,0.5,Calm,Calm,-,N/A,Fog,Fog,0,2012-12-09 09:06:00
1:20 AM,51.8,51.8,100,29.99,1.2,Calm,Calm,-,N/A,,Overcast,0,2012-12-09 09:20:00
1:35 AM,51.8,51.8,100,29.99,0.8,Calm,Calm,-,N/A,,Overcast,0,2012-12-09 09:35:00
1:44 AM,51.8,51.8,100,29.99,2.0,Calm,Calm,-,N/A,,Overcast,0,2012-12-09 09:44:00
1:53 AM,51.1,51.1,100,29.99,1.2,Calm,Calm,-,N/A,,Overcast,0,2012-12-09 09:53:00
2:03 AM,50.0,50.0,100,29.99,0.8,ENE,4.6,-,N/A,,Overcast,70,2012-12-09 10:03:00
2:12 AM,50.0,50.0,100,29.99,0.8,ENE,3.5,-,N/A,,Mist,60,2012-12-09 10:12:00
2:19 AM,50.0,50.0,100,29.99,1.5,ENE,3.5,-,N/A,,Overcast,60,2012-12-09 10:19:00
2:43 AM,51.8,51.8,100,29.99,2.0,ENE,3.5,-,N/A,,Overcast,60,2012-12-09 10:43:00
2:53 AM,51.1,51.1,100,29.99,2.0,ENE,3.5,-,N/A,,Overcast,60,2012-12-09 10:53:00
3:03 AM,51.8,51.8,100,29.99,1.8,ENE,4.6,-,N/A,,Overcast,60,2012-12-09 11:03:00
3:28 AM,51.8,51.8,100,29.98,2.0,East,4.6,-,N/A,,Overcast,80,2012-12-09 11:28:00
3:51 AM,51.8,51.8,100,29.98,2.0,NE,3.5,-,N/A,,Overcast,40,2012-12-09 11:51:00
3:53 AM,51.1,51.1,100,29.98,2.0,NE,3.5,-,N/A,,Overcast,50,2012-12-09 11:53:00
4:00 AM,51.8,51.8,100,29.98,1.8,Calm,Calm,-,N/A,,Overcast,0,2012-12-09 12:00:00
4:10 AM,51.8,51.8,100,29.98,1.8,ENE,4.6,-,N/A,,Overcast,60,2012-12-09 12:10:00
4:53 AM,48.9,48.9,100,29.99,0.5,East,4.6,-,N/A,Fog,Fog,80,2012-12-09 12:53:00
5:53 AM,48.0,48.0,100,29.99,0.2,East,3.5,-,N/A,Fog,Fog,100,2012-12-09 13:53:00
6:34 AM,46.4,46.4,100,30.01,1.2,Calm,Calm,-,N/A,,Overcast,0,2012-12-09 14:34:00
6:42 AM,46.4,46.4,100,30.01,0.2,Calm,Calm,-,N/A,Fog,Fog,0,2012-12-09 14:42:00
6:53 AM,46.9,46.9,100,30.02,0.2,NNE,4.6,-,N/A,Fog,Fog,30,2012-12-09 14:53:00
7:53 AM,48.0,48.0,100,30.04,0.2,NE,3.5,-,N/A,Fog,Fog,40,2012-12-09 15:53:00
8:53 AM,48.9,48.9,100,30.04,2.5,SSE,4.6,-,N/A,,Mostly Cloudy,150,2012-12-09 16:53:00
8:57 AM,48.2,48.2,100,30.05,4.0,SE,4.6,-,N/A,,Scattered Clouds,140,2012-12-09 16:57:00
9:53 AM,57.9,42.1,56,30.04,10.0,Calm,Calm,-,N/A,,Clear,0,2012-12-09 17:53:00
10:53 AM,62.1,46.9,58,30.04,5.0,Variable,3.5,-,N/A,,Haze,0,2012-12-09 18:53:00
11:53 AM,62.1,48.9,62,30.03,5.0,West,5.8,-,N/A,,Haze,280,2012-12-09 19:53:00
12:53 PM,63.0,48.9,60,30.00,5.0,WNW,5.8,-,N/A,,Haze,300,2012-12-09 20:53:00
1:53 PM,63.0,50.0,63,29.99,5.0,WNW,6.9,-,N/A,,Haze,290,2012-12-09 21:53:00
2:53 PM,61.0,50.0,67,30.00,5.0,WNW,4.6,-,N/A,,Haze,290,2012-12-09 22:53:00
3:53 PM,60.1,52.0,75,30.02,5.0,Calm,Calm,-,N/A,,Haze,0,2012-12-09 23:53:00
4:53 PM,55.9,52.0,87,30.04,4.0,West,3.5,-,N/A,,Clear,270,2012-12-10 00:53:00
5:53 PM,54.0,53.1,97,30.07,4.0,Calm,Calm,-,N/A,,Clear,0,2012-12-10 01:53:00
6:53 PM,54.0,53.1,97,30.09,3.0,Calm,Calm,-,N/A,,Clear,0,2012-12-10 02:53:00
7:45 PM,51.8,51.8,100,30.09,2.5,Calm,Calm,-,N/A,,Clear,0,2012-12-10 03:45:00
7:53 PM,52.0,51.1,97,30.09,2.5,Calm,Calm,-,N/A,,Clear,0,2012-12-10 03:53:00
8:05 PM,50.0,50.0,100,30.09,4.0,Calm,Calm,-,N/A,,Clear,0,2012-12-10 04:05:00
8:13 PM,50.0,50.0,100,30.10,2.0,Calm,Calm,-,N/A,,Clear,0,2012-12-10 04:13:00
8:24 PM,50.0,48.2,94,30.10,3.0,Calm,Calm,-,N/A,,Clear,0,2012-12-10 04:24:00
8:32 PM,48.2,48.2,100,30.10,2.0,Calm,Calm,-,N/A,,Clear,0,2012-12-10 04:32:00
8:41 PM,50.0,50.0,100,30.10,1.5,Calm,Calm,-,N/A,,Clear,0,2012-12-10 04:41:00
8:53 PM,52.0,52.0,100,30.10,1.2,Calm,Calm,-,N/A,,Clear,0,2012-12-10 04:53:00
9:11 PM,51.8,50.0,94,30.11,2.5,Calm,Calm,-,N/A,,Clear,0,2012-12-10 05:11:00
9:28 PM,50.0,50.0,100,30.11,3.0,NE,3.5,-,N/A,,Clear,40,2012-12-10 05:28:00
9:53 PM,50.0,48.9,96,30.12,4.0,Calm,Calm,-,N/A,,Clear,0,2012-12-10 05:53:00
10:53 PM,48.0,48.0,100,30.12,5.0,SE,4.6,-,N/A,,Clear,140,2012-12-10 06:53:00
11:22 PM,48.2,48.2,100,30.12,0.5,SE,4.6,-,N/A,Fog,Fog,130,2012-12-10 07:22:00
11:49 PM,48.2,48.2,100,30.11,1.2,Calm,Calm,-,N/A,,Scattered Clouds,0,2012-12-10 07:49:00
11:53 PM,48.9,48.9,100,30.11,1.8,Calm,Calm,-,N/A,,Partly Cloudy,0,2012-12-10 07:53:00